Wind_Speed
39 42 49 61 68 85 96 105 111 120 121 117 110 105 110 119 115 112 109 104 104 102 100 95 91 88 84 82 80 81 78 69 73 67 59 60 59 53 55 52 47 46 42 41
33 34 37 47 65 81 92 104 112 121 124 118 114 110 108 112 118 114 110 107 104 104 102 98 93 90 85 83 80 80 79 76 76 72 66 63 62 58 56 56 55 54 54 49
27 28 32 44 60 77 89 102 112 118 124 120 116 112 105 107 117 116 110 107 105 103 103 100 98 95 91 87 85 82 79 85 79 75 67 67 67 65 63 63 62 52 51 50
18 21 33 45 57 74 90 104 112 116 121 120 115 110 104 99 107 115 111 105 102 101 100 99 99 99 96 95 91 84 83 85 84 81 77 77 77 73 67 63 63 61 56 53
13 18 33 45 58 70 85 102 116 118 119 123 115 109 105 100 102 110 108 105 102 101 101 98 99 99 100 98 95 91 89 88 84 86 84 81 81 78 72 69 63 67 49 51
9 17 33 46 59 72 88 103 114 117 116 121 115 109 106 97 88 96 105 107 105 101 100 99 99 99 99 99 99 97 95 91 89 84 86 85 80 78 76 73 67 73 59 59
8 17 25 41 60 70 87 100 111 114 113 116 116 109 103 99 95 91 96 102 104 104 101 100 100 100 100 99 101 101 97 95 92 91 88 90 86 85 83 78 74 79 72 69
8 14 29 37 52 63 80 101 107 109 109 112 115 109 103 99 95 94 91 97 102 105 104 103 101 101 102 103 100 99 100 98 97 95 93 90 90 90 88 83 82 81 84 73
9 12 26 37 49 58 74 95 105 106 108 110 110 108 101 99 96 94 91 89 91 96 103 105 105 104 103 103 100 99 97 97 98 99 97 96 95 93 88 86 85 81 82 81
12 11 24 34 46 55 73 90 103 106 108 107 108 106 104 99 94 91 92 91 90 89 92 99 104 105 103 101 102 100 98 97 97 98 100 100 98 96 94 91 89 89 90 85
11 10 19 31 40 53 67 84 98 105 104 104 104 103 101 97 93 89 87 89 89 90 91 93 96 100 104 104 102 100 98 99 101 101 100 100 101 99 96 95 95 94 93 92
11 10 16 27 36 49 63 76 92 101 103 100 98 98 97 96 95 90 86 86 86 86 86 87 88 89 93 100 101 99 100 101 100 101 102 100 100 98 98 98 100 101 99 100
8 8 15 23 36 45 58 69 83 97 101 100 98 97 96 96 93 91 87 85 85 84 86 87 86 84 82 83 86 90 94 100 102 101 98 99 100 99 98 99 101 100 109 109
4 6 13 21 31 41 54 66 75 89 97 97 100 97 95 95 93 91 90 87 84 84 84 83 82 80 80 80 80 81 86 90 92 93 97 98 97 98 98 96 104 105 110 109
3 3 7 18 28 40 48 60 72 82 92 95 99 98 93 93 92 90 89 89 87 86 86 84 84 82 81 80 78 76 76 78 80 83 84 82 88 87 99 104 90 104 103 107
2 4 2 11 25 36 45 53 65 75 82 89 95 97 93 91 91 87 86 85 85 86 88 86 81 79 80 81 79 78 74 69 67 64 64 64 37 69 75 76 84 87 103 116
4 1 4 6 18 32 45 51 58 69 77 82 88 91 90 89 87 87 83 80 78 78 79 81 81 81 80 79 78 74 69 68 61 55 54 48 53 66 71 69 82 79 78 87
9 6 7 7 12 23 33 47 54 58 65 73 78 84 89 89 86 83 83 81 78 76 76 78 79 79 73 73 75 71 69 70 69 65 54 53 65 62 71 80 83 68 74 72
11 11 10 10 11 16 26 37 49 58 61 65 73 78 84 87 86 83 81 82 83 82 80 73 73 76 71 62 67 70 75 74 69 54 52 54 68 75 69 78 80 72 78 81
10 12 13 13 15 15 18 26 39 47 55 58 60 65 70 75 82 85 85 84 83 79 76 75 72 76 74 77 73 72 77 75 65 57 58 60 68 72 74 73 73 74 70 70
9 13 15 15 13 15 17 22 27 37 45 51 54 57 59 61 63 67 72 73 68 64 63 53 46 51 55 51 55 61 66 66 60 62 59 68 73 79 80 80 80 81 78 83
10 9 15 16 16 16 18 22 28 30 39 43 45 46 45 44 45 45 45 47 52 54 57 54 48 43 44 44 45 45 54 62 58 72 74 75 75 75 79 87 85 82 88 93
9 11 9 12 16 20 21 21 25 26 31 34 33 34 37 39 42 49 55 58 56 58 54 51 49 44 41 43 42 45 43 51 57 81 84 85 83 84 80 81 85 89 93 94
10 7 7 13 18 23 25 26 26 33 36 37 45 51 52 52 54 53 51 38 39 40 42 43 39 27 27 37 43 32 41 50 54 59 71 83 89 91 92 87 87 90 92 95
11 8 9 13 18 23 26 27 30 39 43 43 52 55 54 53 54 53 52 41 38 42 46 43 34 27 28 29 29 31 31 32 38 54 72 81 78 80 83 81 83 90 91 88
14 13 15 19 21 23 27 29 30 46 43 47 60 58 50 55 56 52 51 46 45 45 43 38 40 30 33 32 34 32 31 29 33 35 40 46 56 63 67 62 56 58 60 63
Wind_Direction
266 249 233 228 215 212 209 206 208 210 208 209 206 209 214 216 216 215 215 215 216 221 223 224 226 228 231 230 231 232 235 236 242 245 242 240 233 243 255 264 266 272 277 282
270 251 231 218 210 209 205 204 206 208 208 207 207 208 213 215 214 216 213 215 217 219 224 224 225 228 229 233 233 233 231 233 238 242 239 235 237 246 257 262 265 269 276 280
273 245 221 212 207 204 203 202 205 207 206 207 207 208 214 215 214 215 215 215 216 218 222 225 227 227 229 230 232 233 231 231 237 241 238 234 239 253 259 265 266 270 275 271
278 239 215 205 204 202 199 200 204 206 207 206 208 210 214 215 215 214 215 214 217 220 222 225 228 230 230 230 231 234 233 233 234 239 237 237 244 250 256 261 266 270 271 272
288 226 204 205 198 199 196 198 202 206 206 206 207 209 214 217 216 216 216 216 217 220 222 225 226 228 231 232 233 232 234 233 236 236 239 241 246 250 256 261 264 268 267 273
302 222 206 197 194 195 194 199 201 205 206 207 207 209 213 217 220 218 218 217 218 220 223 226 229 230 232 234 234 234 234 235 237 238 238 243 248 249 255 260 264 266 267 268
304 212 202 202 194 195 197 199 201 204 206 208 208 209 213 215 219 219 219 219 219 220 222 226 229 231 232 234 236 237 238 239 240 241 240 242 246 249 253 257 260 265 264 269
312 214 192 197 198 200 197 199 201 204 206 208 210 210 213 215 219 222 221 222 222 221 222 224 229 232 233 235 236 239 240 242 243 245 245 245 246 248 251 254 257 259 266 264
313 215 204 195 193 197 199 198 199 203 205 207 210 211 214 217 218 220 223 226 224 226 226 225 227 230 233 236 237 239 240 242 244 246 248 249 250 251 252 252 256 258 262 265
316 230 201 203 196 196 196 197 198 200 203 206 209 212 213 217 221 220 223 225 226 227 229 229 231 232 233 236 238 240 241 244 246 247 248 250 251 253 255 257 257 260 262 263
323 246 213 199 201 197 195 199 199 199 201 203 206 211 213 216 220 223 222 224 228 230 231 233 234 235 236 237 238 240 242 244 245 246 248 250 252 253 254 256 259 260 261 264
333 254 213 205 197 200 196 196 199 200 200 202 206 209 213 216 219 222 225 226 226 229 233 238 240 240 239 239 240 241 244 245 246 247 248 251 253 254 255 257 258 260 262 263
328 267 220 200 195 198 195 197 199 200 201 203 206 210 213 216 219 222 225 228 230 231 234 237 239 241 243 243 244 245 247 249 249 251 251 252 254 255 257 260 261 261 261 261
320 285 220 201 201 195 197 196 199 202 203 205 208 211 214 217 220 223 225 228 231 233 235 238 242 246 248 249 249 249 249 250 252 254 254 255 257 258 260 264 263 258 265 260
266 270 219 210 199 195 198 201 200 203 204 206 208 211 214 217 221 224 227 229 230 233 236 239 242 245 248 251 253 255 255 256 255 256 257 259 260 266 259 260 263 263 263 263
211 62 317 216 204 197 196 201 204 204 206 208 209 212 215 218 221 224 228 231 234 236 238 240 242 245 248 251 253 255 256 259 260 261 264 258 256 250 258 255 252 258 265 265
155 100 148 176 204 205 195 197 202 206 207 210 212 213 216 220 223 224 228 232 235 238 239 240 242 245 248 251 253 256 258 254 256 258 260 250 231 245 253 254 267 272 268 271
167 179 178 169 188 201 203 204 201 205 210 213 214 217 218 221 224 226 229 232 236 240 242 243 244 247 250 254 254 253 252 256 258 259 250 239 227 234 244 253 261 262 264 277
173 182 183 172 181 190 194 203 205 204 208 213 216 219 220 221 224 228 231 233 236 239 242 248 249 250 251 249 251 252 254 255 256 244 233 234 223 233 241 247 256 259 268 273
164 188 192 190 192 190 192 198 201 207 210 212 217 220 222 223 227 230 232 235 238 241 246 247 248 249 253 252 251 250 252 253 246 224 222 221 226 233 243 247 253 257 264 271
160 201 201 207 201 191 186 201 198 201 205 209 211 213 219 223 226 229 233 237 241 241 238 236 223 232 230 234 234 240 242 242 238 216 222 226 230 236 241 246 253 254 260 266
149 190 207 213 216 210 195 183 187 193 200 202 206 210 212 215 216 217 216 213 207 205 206 204 212 218 221 227 231 232 234 235 231 213 220 224 232 237 245 247 251 256 260 264
160 186 186 198 206 210 203 193 175 166 182 179 182 178 179 183 181 176 178 184 189 195 211 202 203 215 228 229 236 236 233 232 231 219 224 229 237 242 248 251 254 257 262 269
163 178 226 203 203 201 199 198 183 174 171 169 167 165 165 168 174 179 176 181 194 193 211 208 212 235 245 240 234 241 243 238 236 236 234 238 240 245 249 253 257 261 262 266
169 186 214 215 204 194 197 196 186 185 174 176 174 171 176 180 175 184 186 191 190 202 215 219 223 247 244 255 261 254 249 239 238 237 238 241 244 247 252 258 259 263 269 271
190 192 204 207 186 186 186 190 192 181 184 187 177 180 178 184 178 178 180 187 203 210 221 228 233 253 255 259 250 243 243 248 253 252 253 252 250 251 254 258 265 268 269 272
Height
10422 10424 10429 10436 10454 10470 10497 10525 10556 10581 10601 10621 10651 10655 10665 10678 10706 10725 10751 10772 10786 10794 10802 10814 10826 10834 10844 10852 10859 10868 10873 10875 10882 10887 10892 10894 10896 10898 10899 10902 10904 10902 10901 10897
10406 10407 10414 10423 10438 10458 10480 10506 10535 10556 10583 10608 10620 10640 10641 10660 10691 10709 10735 10756 10771 10784 10791 10804 10816 10822 10829 10839 10847 10852 10861 10865 10870 10874 10878 10883 10885 10889 10891 10891 10891 10892 10891 10889
10397 10398 10405 10414 10428 10447 10469 10493 10519 10543 10570 10590 10604 10620 10627 10651 10679 10697 10723 10743 10758 10772 10780 10793 10802 10808 10816 10824 10829 10839 10848 10853 10856 10863 10869 10872 10875 10879 10881 10881 10880 10881 10882 10880
10390 10392 10399 10406 10421 10438 10456 10482 10508 10532 10560 10583 10601 10616 10624 10643 10664 10689 10711 10733 10749 10761 10770 10780 10788 10795 10800 10805 10814 10828 10833 10839 10847 10852 10857 10860 10863 10868 10868 10870 10870 10870 10871 10869
10389 10389 10393 10405 10417 10435 10454 10477 10494 10516 10543 10567 10589 10606 10615 10631 10656 10686 10710 10726 10738 10747 10758 10765 10768 10771 10781 10791 10804 10812 10819 10826 10831 10839 10842 10846 10853 10857 10858 10860 10860 10859 10860 10857
10390 10390 10393 10401 10414 10426 10447 10467 10489 10512 10539 10560 10583 10599 10609 10633 10664 10678 10692 10708 10722 10733 10743 10751 10755 10765 10773 10781 10787 10796 10804 10812 10820 10827 10833 10836 10843 10844 10847 10851 10851 10847 10849 10849
10393 10393 10399 10408 10416 10428 10443 10465 10485 10507 10532 10557 10576 10593 10608 10626 10639 10662 10678 10693 10706 10718 10729 10738 10743 10749 10756 10764 10771 10783 10796 10801 10809 10814 10821 10824 10832 10834 10836 10840 10841 10835 10838 10838
10396 10399 10400 10408 10421 10434 10450 10464 10488 10510 10533 10553 10569 10590 10602 10617 10629 10648 10666 10678 10691 10704 10713 10723 10729 10737 10741 10747 10761 10773 10782 10794 10797 10803 10807 10812 10816 10820 10824 10830 10828 10825 10824 10828
10400 10401 10404 10409 10418 10432 10450 10466 10487 10508 10526 10543 10564 10584 10599 10607 10620 10638 10655 10667 10684 10691 10700 10708 10715 10720 10724 10737 10750 10757 10769 10779 10784 10791 10795 10799 10801 10804 10811 10814 10812 10813 10815 10813
10402 10403 10405 10411 10419 10430 10444 10462 10481 10500 10519 10539 10558 10572 10586 10596 10609 10628 10646 10654 10664 10676 10687 10694 10698 10706 10719 10728 10735 10750 10759 10765 10770 10774 10778 10781 10785 10789 10795 10797 10799 10800 10796 10798
10405 10404 10406 10410 10420 10429 10444 10461 10479 10497 10516 10534 10550 10562 10577 10589 10601 10614 10631 10643 10656 10666 10671 10677 10687 10702 10713 10719 10729 10740 10749 10753 10752 10754 10761 10767 10769 10776 10781 10783 10785 10784 10782 10783
10406 10405 10407 10412 10418 10428 10440 10453 10475 10494 10510 10527 10542 10555 10569 10581 10592 10604 10616 10628 10643 10654 10662 10672 10682 10690 10698 10706 10716 10728 10728 10729 10733 10740 10748 10753 10755 10764 10769 10773 10769 10767 10769 10763
10407 10407 10408 10412 10417 10427 10438 10453 10469 10487 10505 10522 10534 10545 10558 10571 10583 10594 10605 10615 10628 10643 10650 10659 10668 10677 10686 10696 10704 10710 10711 10712 10720 10727 10735 10740 10746 10751 10754 10754 10752 10755 10739 10742
10408 10409 10409 10413 10420 10428 10437 10451 10467 10483 10498 10512 10526 10536 10549 10560 10572 10583 10595 10606 10616 10628 10638 10648 10660 10670 10678 10681 10688 10693 10695 10697 10708 10715 10720 10730 10736 10739 10742 10740 10731 10733 10714 10724
10409 10410 10412 10414 10420 10428 10438 10450 10461 10474 10488 10503 10515 10527 10541 10550 10563 10574 10585 10595 10607 10617 10629 10640 10649 10657 10662 10665 10671 10677 10683 10689 10695 10701 10710 10715 10724 10722 10722 10718 10705 10706 10699 10706
10410 10413 10414 10416 10420 10428 10436 10448 10459 10471 10485 10495 10507 10521 10530 10540 10553 10566 10576 10587 10597 10609 10619 10630 10638 10643 10649 10653 10660 10664 10670 10679 10684 10690 10694 10706 10712 10701 10696 10693 10690 10686 10682 10686
10411 10412 10415 10418 10421 10426 10432 10440 10452 10463 10472 10486 10500 10513 10525 10533 10544 10557 10567 10575 10584 10594 10606 10614 10623 10630 10637 10641 10645 10653 10661 10660 10666 10674 10681 10688 10694 10689 10680 10673 10670 10668 10665 10663
10411 10414 10417 10419 10422 10426 10436 10441 10450 10461 10472 10481 10492 10502 10514 10523 10534 10547 10558 10568 10577 10585 10593 10602 10612 10619 10626 10630 10637 10641 10641 10646 10651 10658 10661 10665 10669 10669 10664 10657 10658 10654 10649 10651
10412 10415 10418 10422 10425 10427 10431 10438 10445 10452 10462 10471 10479 10489 10502 10516 10528 10536 10546 10556 10566 10573 10582 10592 10599 10604 10613 10617 10617 10618 10623 10630 10635 10641 10645 10648 10652 10650 10646 10644 10645 10644 10640 10638
10413 10416 10420 10424 10427 10429 10432 10435 10440 10448 10456 10466 10478 10489 10496 10506 10516 10527 10537 10547 10556 10567 10574 10579 10584 10589 10594 10597 10599 10602 10605 10612 10620 10627 10631 10633 10635 10633 10634 10635 10633 10628 10625 10623
10415 10418 10421 10424 10428 10432 10433 10436 10439 10445 10453 10460 10469 10478 10488 10500 10511 10520 10529 10539 10550 10557 10561 10567 10572 10575 10580 10582 10585 10587 10591 10597 10606 10613 10616 10620 10624 10623 10621 10620 10620 10616 10614 10612
10417 10420 10422 10426 10429 10432 10434 10437 10441 10447 10451 10458 10465 10474 10484 10494 10505 10513 10522 10530 10539 10545 10552 10556 10561 10566 10571 10572 10574 10577 10581 10585 10594 10599 10601 10606 10609 10608 10603 10605 10605 10602 10600 10600
10417 10417 10422 10426 10429 10432 10436 10439 10443 10447 10453 10458 10466 10474 10482 10491 10501 10510 10519 10527 10533 10540 10546 10549 10552 10558 10560 10565 10568 10571 10574 10578 10583 10589 10589 10591 10594 10595 10593 10593 10594 10593 10592 10591
10418 10421 10423 10425 10427 10431 10435 10440 10446 10450 10455 10462 10468 10475 10483 10493 10501 10511 10521 10529 10538 10539 10540 10545 10549 10553 10556 10560 10565 10567 10569 10574 10577 10580 10582 10582 10585 10585 10586 10585 10585 10584 10582 10579
10419 10421 10423 10425 10427 10432 10436 10442 10448 10453 10459 10463 10470 10479 10485 10493 10502 10511 10517 10524 10528 10534 10538 10541 10547 10550 10554 10556 10558 10560 10562 10565 10567 10569 10571 10571 10573 10575 10575 10575 10574 10574 10570 10566
10418 10422 10422 10424 10427 10432 10437 10444 10450 10456 10460 10466 10473 10480 10487 10494 10502 10508 10515 10521 10526 10530 10533 10538 10545 10546 10547 10550 10552 10553 10556 10558 10559 10560 10561 10561 10562 10563 10564 10564 10563 10561 10557 10553